Time,TemperatureF,DewpointF,PressureIn,WindDirection,WindDirectionDegrees,WindSpeedMPH,WindSpeedGustMPH,Humidity,HourlyPrecipIn,Conditions,Clouds,dailyrainin,SoftwareType,DateUTC
2013-08-16 00:00:00,47.4,46.3,30.09,West,270,0.0,0.0,96,0.00,,,0.00,Wunderground v.1.15,2013-08-16 04:00:00,
2013-08-16 00:05:00,47.3,46.2,30.09,West,270,1.0,1.0,96,0.00,,,0.00,Wunderground v.1.15,2013-08-16 04:05:00,
2013-08-16 00:15:00,47.1,46.0,30.09,West,270,0.0,0.0,96,0.00,,,0.00,Wunderground v.1.15,2013-08-16 04:15:00,
2013-08-16 00:20:00,47.0,45.9,30.10,West,270,0.0,3.0,96,0.00,,,0.00,Wunderground v.1.15,2013-08-16 04:20:00,
2013-08-16 00:30:00,46.9,45.8,30.10,West,270,1.0,1.0,96,0.00,,,0.00,Wunderground v.1.15,2013-08-16 04:30:00,
2013-08-16 00:35:00,46.7,45.6,30.09,West,270,0.0,1.0,96,0.00,,,0.00,Wunderground v.1.15,2013-08-16 04:35:00,
2013-08-16 00:40:00,46.7,45.6,30.09,West,270,0.0,0.0,96,0.00,,,0.00,Wunderground v.1.15,2013-08-16 04:40:00,
2013-08-16 00:45:00,46.5,45.4,30.09,West,270,0.0,0.0,96,0.00,,,0.00,Wunderground v.1.15,2013-08-16 04:45:00,
2013-08-16 00:50:00,46.4,45.3,30.09,West,270,0.0,0.0,96,0.00,,,0.00,Wunderground v.1.15,2013-08-16 04:50:00,
2013-08-16 00:55:00,46.3,45.2,30.09,West,270,0.0,0.0,96,0.00,,,0.00,Wunderground v.1.15,2013-08-16 04:55:00,
2013-08-16 01:00:00,46.2,45.1,30.09,West,270,0.0,0.0,96,0.00,,,0.00,Wunderground v.1.15,2013-08-16 05:00:00,
2013-08-16 01:05:00,46.1,45.0,30.09,West,270,0.0,0.0,96,0.00,,,0.00,Wunderground v.1.15,2013-08-16 05:05:00,
2013-08-16 01:10:00,46.0,44.9,30.09,West,270,0.0,0.0,96,0.00,,,0.00,Wunderground v.1.15,2013-08-16 05:10:00,
2013-08-16 01:15:00,45.8,44.7,30.09,West,270,0.0,0.0,96,0.00,,,0.00,Wunderground v.1.15,2013-08-16 05:15:00,
2013-08-16 01:20:00,45.6,44.5,30.09,West,270,0.0,0.0,96,0.00,,,0.00,Wunderground v.1.15,2013-08-16 05:20:00,
2013-08-16 01:30:00,45.3,44.2,30.09,West,270,0.0,0.0,96,0.00,,,0.00,Wunderground v.1.15,2013-08-16 05:30:00,
2013-08-16 01:35:00,45.3,44.2,30.09,West,270,0.0,0.0,96,0.00,,,0.00,Wunderground v.1.15,2013-08-16 05:35:00,
2013-08-16 01:45:00,45.1,44.0,30.09,West,270,0.0,0.0,96,0.00,,,0.00,Wunderground v.1.15,2013-08-16 05:45:00,
2013-08-16 01:50:00,45.0,43.9,30.09,West,270,0.0,0.0,96,0.00,,,0.00,Wunderground v.1.15,2013-08-16 05:50:00,
2013-08-16 01:55:00,44.9,43.8,30.09,West,270,0.0,0.0,96,0.00,,,0.00,Wunderground v.1.15,2013-08-16 05:55:00,
2013-08-16 02:00:00,44.8,43.7,30.09,West,270,0.0,0.0,96,0.00,,,0.00,Wunderground v.1.15,2013-08-16 06:00:00,
2013-08-16 02:10:00,44.7,43.6,30.09,West,270,1.0,1.0,96,0.00,,,0.00,Wunderground v.1.15,2013-08-16 06:10:00,
2013-08-16 02:15:00,44.7,43.6,30.09,West,270,1.0,3.0,96,0.00,,,0.00,Wunderground v.1.15,2013-08-16 06:15:00,
2013-08-16 02:20:00,44.8,43.7,30.09,West,270,1.0,2.0,96,0.00,,,0.00,Wunderground v.1.15,2013-08-16 06:20:00,
2013-08-16 02:25:00,45.0,44.2,30.09,West,270,1.0,2.0,97,0.00,,,0.00,Wunderground v.1.15,2013-08-16 06:25:00,
2013-08-16 02:30:00,45.2,44.4,30.09,West,270,1.0,1.0,97,0.00,,,0.00,Wunderground v.1.15,2013-08-16 06:30:00,
2013-08-16 02:35:00,45.2,44.4,30.09,West,270,1.0,1.0,97,0.00,,,0.00,Wunderground v.1.15,2013-08-16 06:35:00,
2013-08-16 02:40:00,45.2,44.4,30.09,West,270,0.0,0.0,97,0.00,,,0.00,Wunderground v.1.15,2013-08-16 06:40:00,
2013-08-16 02:45:00,45.2,44.4,30.09,West,270,0.0,0.0,97,0.00,,,0.00,Wunderground v.1.15,2013-08-16 06:45:00,
2013-08-16 02:50:00,45.1,44.0,30.09,West,270,0.0,0.0,96,0.00,,,0.00,Wunderground v.1.15,2013-08-16 06:50:00,
2013-08-16 02:55:00,44.9,43.8,30.09,West,270,0.0,0.0,96,0.00,,,0.00,Wunderground v.1.15,2013-08-16 06:55:00,
2013-08-16 03:00:00,44.7,43.6,30.09,West,270,0.0,0.0,96,0.00,,,0.00,Wunderground v.1.15,2013-08-16 07:00:00,
2013-08-16 03:10:00,44.5,43.4,30.09,West,270,0.0,0.0,96,0.00,,,0.00,Wunderground v.1.15,2013-08-16 07:10:00,
2013-08-16 03:25:00,44.2,43.4,30.10,West,270,0.0,0.0,97,0.00,,,0.00,Wunderground v.1.15,2013-08-16 07:25:00,
2013-08-16 03:35:00,44.2,43.4,30.10,West,270,0.0,0.0,97,0.00,,,0.00,Wunderground v.1.15,2013-08-16 07:35:00,
2013-08-16 03:40:00,44.0,42.9,30.10,West,270,0.0,0.0,96,0.00,,,0.00,Wunderground v.1.15,2013-08-16 07:40:00,
2013-08-16 03:45:00,43.8,42.7,30.10,West,270,0.0,0.0,96,0.00,,,0.00,Wunderground v.1.15,2013-08-16 07:45:00,
2013-08-16 03:50:00,43.6,42.5,30.10,West,270,0.0,0.0,96,0.00,,,0.00,Wunderground v.1.15,2013-08-16 07:50:00,
2013-08-16 03:55:00,43.6,42.8,30.10,West,270,0.0,0.0,97,0.00,,,0.00,Wunderground v.1.15,2013-08-16 07:55:00,
2013-08-16 04:00:00,43.7,42.9,30.10,West,270,0.0,0.0,97,0.00,,,0.00,Wunderground v.1.15,2013-08-16 08:00:00,
2013-08-16 04:10:00,43.5,42.7,30.10,West,270,0.0,0.0,97,0.00,,,0.00,Wunderground v.1.15,2013-08-16 08:10:00,
2013-08-16 04:15:00,43.4,42.6,30.10,West,270,0.0,0.0,97,0.00,,,0.00,Wunderground v.1.15,2013-08-16 08:15:00,
2013-08-16 04:20:00,43.3,42.2,30.11,West,270,0.0,0.0,96,0.00,,,0.00,Wunderground v.1.15,2013-08-16 08:20:00,
2013-08-16 04:25:00,43.3,42.5,30.11,West,270,0.0,0.0,97,0.00,,,0.00,Wunderground v.1.15,2013-08-16 08:25:00,
2013-08-16 04:30:00,43.5,42.7,30.11,West,270,0.0,0.0,97,0.00,,,0.00,Wunderground v.1.15,2013-08-16 08:30:00,
2013-08-16 04:40:00,43.8,43.0,30.11,West,270,0.0,0.0,97,0.00,,,0.00,Wunderground v.1.15,2013-08-16 08:40:00,
2013-08-16 04:45:00,43.9,43.1,30.11,West,270,0.0,0.0,97,0.00,,,0.00,Wunderground v.1.15,2013-08-16 08:45:00,
2013-08-16 04:50:00,44.0,43.2,30.11,West,270,0.0,0.0,97,0.00,,,0.00,Wunderground v.1.15,2013-08-16 08:50:00,
2013-08-16 05:00:00,44.1,43.3,30.11,West,270,0.0,0.0,97,0.00,,,0.00,Wunderground v.1.15,2013-08-16 09:00:00,
2013-08-16 05:05:00,44.2,43.4,30.12,West,270,0.0,0.0,97,0.00,,,0.00,Wunderground v.1.15,2013-08-16 09:05:00,
2013-08-16 05:10:00,44.3,43.5,30.12,West,270,0.0,0.0,97,0.00,,,0.00,Wunderground v.1.15,2013-08-16 09:10:00,
2013-08-16 05:15:00,44.5,43.7,30.12,West,270,0.0,0.0,97,0.00,,,0.00,Wunderground v.1.15,2013-08-16 09:15:00,
2013-08-16 05:20:00,44.7,43.9,30.12,West,270,0.0,0.0,97,0.00,,,0.00,Wunderground v.1.15,2013-08-16 09:20:00,
2013-08-16 05:25:00,44.8,44.0,30.12,West,270,0.0,0.0,97,0.00,,,0.00,Wunderground v.1.15,2013-08-16 09:25:00,
2013-08-16 05:30:00,44.9,44.1,30.12,West,270,0.0,0.0,97,0.00,,,0.00,Wunderground v.1.15,2013-08-16 09:30:00,
2013-08-16 05:35:00,45.1,44.6,30.12,West,270,0.0,0.0,98,0.00,,,0.00,Wunderground v.1.15,2013-08-16 09:35:00,
2013-08-16 05:40:00,45.3,44.5,30.12,West,270,0.0,0.0,97,0.00,,,0.00,Wunderground v.1.15,2013-08-16 09:40:00,
2013-08-16 05:45:00,45.3,44.5,30.13,West,270,0.0,0.0,97,0.00,,,0.00,Wunderground v.1.15,2013-08-16 09:45:00,
2013-08-16 05:50:00,45.4,44.6,30.13,West,270,0.0,0.0,97,0.00,,,0.00,Wunderground v.1.15,2013-08-16 09:50:00,
2013-08-16 05:55:00,45.4,44.6,30.13,West,270,0.0,0.0,97,0.00,,,0.00,Wunderground v.1.15,2013-08-16 09:55:00,
2013-08-16 06:00:00,45.5,44.7,30.13,West,270,0.0,0.0,97,0.00,,,0.00,Wunderground v.1.15,2013-08-16 10:00:00,
2013-08-16 06:05:00,45.6,45.1,30.13,West,270,0.0,0.0,98,0.00,,,0.00,Wunderground v.1.15,2013-08-16 10:05:00,
2013-08-16 06:10:00,45.7,45.2,30.13,West,270,0.0,0.0,98,0.00,,,0.00,Wunderground v.1.15,2013-08-16 10:10:00,
2013-08-16 06:15:00,45.9,45.4,30.13,West,270,0.0,0.0,98,0.00,,,0.00,Wunderground v.1.15,2013-08-16 10:15:00,
2013-08-16 06:20:00,46.0,45.5,30.13,West,270,0.0,0.0,98,0.00,,,0.00,Wunderground v.1.15,2013-08-16 10:20:00,
2013-08-16 06:25:00,46.1,45.6,30.13,West,270,0.0,0.0,98,0.00,,,0.00,Wunderground v.1.15,2013-08-16 10:25:00,
2013-08-16 06:30:00,46.3,45.8,30.14,West,270,0.0,0.0,98,0.00,,,0.00,Wunderground v.1.15,2013-08-16 10:30:00,
2013-08-16 06:35:00,46.3,45.8,30.14,West,270,0.0,0.0,98,0.00,,,0.00,Wunderground v.1.15,2013-08-16 10:35:00,
2013-08-16 06:45:00,46.7,46.2,30.14,West,270,0.0,0.0,98,0.00,,,0.00,Wunderground v.1.15,2013-08-16 10:45:00,
2013-08-16 06:50:00,46.9,46.4,30.14,West,270,0.0,0.0,98,0.00,,,0.00,Wunderground v.1.15,2013-08-16 10:50:00,
2013-08-16 06:55:00,47.2,46.7,30.14,West,270,0.0,0.0,98,0.00,,,0.00,Wunderground v.1.15,2013-08-16 10:55:00,
2013-08-16 07:05:00,47.7,47.2,30.14,West,270,0.0,0.0,98,0.00,,,0.00,Wunderground v.1.15,2013-08-16 11:05:00,
2013-08-16 07:10:00,47.9,47.4,30.14,West,270,0.0,0.0,98,0.00,,,0.00,Wunderground v.1.15,2013-08-16 11:10:00,
2013-08-16 07:15:00,48.1,47.6,30.14,West,270,0.0,0.0,98,0.00,,,0.00,Wunderground v.1.15,2013-08-16 11:15:00,
2013-08-16 07:20:00,48.5,48.0,30.14,West,270,0.0,0.0,98,0.00,,,0.00,Wunderground v.1.15,2013-08-16 11:20:00,
2013-08-16 07:25:00,48.9,48.4,30.14,West,270,0.0,0.0,98,0.00,,,0.00,Wunderground v.1.15,2013-08-16 11:25:00,
2013-08-16 07:30:00,49.3,48.8,30.14,West,270,0.0,0.0,98,0.00,,,0.00,Wunderground v.1.15,2013-08-16 11:30:00,
2013-08-16 07:35:00,49.6,49.1,30.14,West,270,0.0,0.0,98,0.00,,,0.00,Wunderground v.1.15,2013-08-16 11:35:00,
2013-08-16 07:40:00,49.9,49.4,30.14,West,270,0.0,0.0,98,0.00,,,0.00,Wunderground v.1.15,2013-08-16 11:40:00,
2013-08-16 07:45:00,50.2,49.7,30.15,West,270,0.0,1.0,98,0.00,,,0.00,Wunderground v.1.15,2013-08-16 11:45:00,
2013-08-16 07:55:00,50.6,50.1,30.14,West,270,0.0,1.0,98,0.00,,,0.00,Wunderground v.1.15,2013-08-16 11:55:00,
2013-08-16 08:05:00,51.2,50.7,30.14,WNW,284,0.0,1.0,98,0.00,,,0.00,Wunderground v.1.15,2013-08-16 12:05:00,
2013-08-16 08:10:00,51.5,51.0,30.14,WNW,284,0.0,0.0,98,0.00,,,0.00,Wunderground v.1.15,2013-08-16 12:10:00,
2013-08-16 08:15:00,51.7,51.2,30.15,WNW,284,0.0,0.0,98,0.00,,,0.00,Wunderground v.1.15,2013-08-16 12:15:00,
2013-08-16 08:20:00,52.2,51.7,30.14,NW,305,0.0,1.0,98,0.00,,,0.00,Wunderground v.1.15,2013-08-16 12:20:00,
2013-08-16 08:25:00,52.6,52.1,30.14,NW,305,0.0,1.0,98,0.00,,,0.00,Wunderground v.1.15,2013-08-16 12:25:00,
2013-08-16 08:30:00,53.0,52.5,30.14,SSE,155,1.0,1.0,98,0.00,,,0.00,Wunderground v.1.15,2013-08-16 12:30:00,
2013-08-16 08:35:00,53.8,53.2,30.14,ESE,112,2.0,2.0,98,0.00,,,0.00,Wunderground v.1.15,2013-08-16 12:35:00,
2013-08-16 08:45:00,54.8,53.7,30.14,ENE,59,1.0,2.0,96,0.00,,,0.00,Wunderground v.1.15,2013-08-16 12:45:00,
2013-08-16 08:50:00,55.1,53.1,30.14,ENE,59,1.0,1.0,93,0.00,,,0.00,Wunderground v.1.15,2013-08-16 12:50:00,
2013-08-16 08:55:00,55.6,53.3,30.14,ENE,59,1.0,1.0,92,0.00,,,0.00,Wunderground v.1.15,2013-08-16 12:55:00,
2013-08-16 09:10:00,57.3,53.8,30.14,ENE,61,2.0,2.0,88,0.00,,,0.00,Wunderground v.1.15,2013-08-16 13:10:00,
2013-08-16 09:15:00,57.8,54.3,30.14,ENE,61,1.0,2.0,88,0.00,,,0.00,Wunderground v.1.15,2013-08-16 13:15:00,
2013-08-16 09:20:00,58.5,54.3,30.14,ENE,61,0.0,0.0,86,0.00,,,0.00,Wunderground v.1.15,2013-08-16 13:20:00,
2013-08-16 09:25:00,59.0,54.8,30.14,ENE,61,1.0,1.0,86,0.00,,,0.00,Wunderground v.1.15,2013-08-16 13:25:00,
2013-08-16 09:30:00,59.6,55.4,30.14,ENE,61,1.0,1.0,86,0.00,,,0.00,Wunderground v.1.15,2013-08-16 13:30:00,
2013-08-16 09:35:00,59.8,55.0,30.14,ENE,61,1.0,1.0,84,0.00,,,0.00,Wunderground v.1.15,2013-08-16 13:35:00,
2013-08-16 09:40:00,60.2,55.0,30.14,NNE,14,1.0,2.0,83,0.00,,,0.00,Wunderground v.1.15,2013-08-16 13:40:00,
2013-08-16 09:45:00,60.5,55.0,30.14,NNE,14,2.0,2.0,82,0.00,,,0.00,Wunderground v.1.15,2013-08-16 13:45:00,
2013-08-16 09:50:00,61.3,55.8,30.14,SSE,150,1.0,4.0,82,0.00,,,0.00,Wunderground v.1.15,2013-08-16 13:50:00,
2013-08-16 10:00:00,62.5,56.6,30.14,East,83,1.0,1.0,81,0.00,,,0.00,Wunderground v.1.15,2013-08-16 14:00:00,
2013-08-16 10:05:00,63.0,55.7,30.14,ENE,67,1.0,5.0,77,0.00,,,0.00,Wunderground v.1.15,2013-08-16 14:05:00,
2013-08-16 10:15:00,64.3,57.6,30.13,ENE,61,2.0,2.0,79,0.00,,,0.00,Wunderground v.1.15,2013-08-16 14:15:00,
2013-08-16 10:20:00,64.6,56.5,30.13,NE,46,2.0,2.0,75,0.00,,,0.00,Wunderground v.1.15,2013-08-16 14:20:00,
2013-08-16 10:30:00,64.5,56.8,30.13,ENE,60,2.0,2.0,76,0.00,,,0.00,Wunderground v.1.15,2013-08-16 14:30:00,
2013-08-16 10:35:00,65.2,57.4,30.13,ENE,68,2.0,3.0,76,0.00,,,0.00,Wunderground v.1.15,2013-08-16 14:35:00,
2013-08-16 10:40:00,65.8,57.3,30.13,NE,50,3.0,3.0,74,0.00,,,0.00,Wunderground v.1.15,2013-08-16 14:40:00,
2013-08-16 10:45:00,66.2,57.3,30.13,East,82,3.0,3.0,73,0.00,,,0.00,Wunderground v.1.15,2013-08-16 14:45:00,
2013-08-16 10:50:00,66.6,59.2,30.13,East,83,2.0,2.0,77,0.00,,,0.00,Wunderground v.1.15,2013-08-16 14:50:00,
2013-08-16 10:55:00,67.1,58.9,30.12,NE,56,2.0,4.0,75,0.00,,,0.00,Wunderground v.1.15,2013-08-16 14:55:00,
2013-08-16 11:00:00,67.5,57.8,30.12,North,355,3.0,3.0,71,0.00,,,0.00,Wunderground v.1.15,2013-08-16 15:00:00,
2013-08-16 11:05:00,67.2,57.9,30.12,NNW,348,3.0,4.0,72,0.00,,,0.00,Wunderground v.1.15,2013-08-16 15:05:00,
2013-08-16 11:10:00,66.8,57.1,30.12,North,360,4.0,4.0,71,0.00,,,0.00,Wunderground v.1.15,2013-08-16 15:10:00,
2013-08-16 11:15:00,67.3,58.7,30.12,NE,36,3.0,4.0,74,0.00,,,0.00,Wunderground v.1.15,2013-08-16 15:15:00,
2013-08-16 11:20:00,68.0,59.4,30.12,ENE,70,2.0,4.0,74,0.00,,,0.00,Wunderground v.1.15,2013-08-16 15:20:00,
2013-08-16 11:25:00,68.6,58.4,30.12,WSW,254,2.0,4.0,70,0.00,,,0.00,Wunderground v.1.15,2013-08-16 15:25:00,
2013-08-16 11:30:00,68.8,58.6,30.12,ESE,122,2.0,3.0,70,0.00,,,0.00,Wunderground v.1.15,2013-08-16 15:30:00,
2013-08-16 11:35:00,69.0,58.8,30.12,ENE,62,2.0,3.0,70,0.00,,,0.00,Wunderground v.1.15,2013-08-16 15:35:00,
2013-08-16 11:40:00,69.2,58.2,30.11,NNW,342,2.0,4.0,68,0.00,,,0.00,Wunderground v.1.15,2013-08-16 15:40:00,
2013-08-16 11:45:00,69.0,58.0,30.12,SSE,147,2.0,4.0,68,0.00,,,0.00,Wunderground v.1.15,2013-08-16 15:45:00,
2013-08-16 11:50:00,69.0,57.6,30.11,ESE,103,2.0,2.0,67,0.00,,,0.00,Wunderground v.1.15,2013-08-16 15:50:00,
2013-08-16 11:55:00,69.0,57.2,30.11,SSE,153,2.0,3.0,66,0.00,,,0.00,Wunderground v.1.15,2013-08-16 15:55:00,
2013-08-16 12:00:00,68.6,57.6,30.11,SE,132,3.0,3.0,68,0.00,,,0.00,Wunderground v.1.15,2013-08-16 16:00:00,
2013-08-16 12:10:00,68.9,58.7,30.11,ENE,62,2.0,5.0,70,0.00,,,0.00,Wunderground v.1.15,2013-08-16 16:10:00,
2013-08-16 12:15:00,69.4,58.8,30.11,SSE,148,2.0,5.0,69,0.00,,,0.00,Wunderground v.1.15,2013-08-16 16:15:00,
2013-08-16 12:20:00,69.4,57.1,30.11,SW,215,2.0,2.0,65,0.00,,,0.00,Wunderground v.1.15,2013-08-16 16:20:00,
2013-08-16 12:25:00,69.9,54.4,30.11,SW,215,2.0,7.0,58,0.00,,,0.00,Wunderground v.1.15,2013-08-16 16:25:00,
2013-08-16 12:30:00,70.2,54.2,30.11,SSE,166,2.0,2.0,57,0.00,,,0.00,Wunderground v.1.15,2013-08-16 16:30:00,
2013-08-16 12:40:00,71.3,55.8,30.11,South,187,2.0,2.0,58,0.00,,,0.00,Wunderground v.1.15,2013-08-16 16:40:00,
2013-08-16 12:45:00,70.8,54.8,30.11,WSW,245,3.0,4.0,57,0.00,,,0.00,Wunderground v.1.15,2013-08-16 16:45:00,
2013-08-16 12:50:00,70.0,55.0,30.11,ESE,123,3.0,3.0,59,0.00,,,0.00,Wunderground v.1.15,2013-08-16 16:50:00,
2013-08-16 12:55:00,69.7,55.2,30.11,WNW,294,3.0,3.0,60,0.00,,,0.00,Wunderground v.1.15,2013-08-16 16:55:00,
2013-08-16 13:00:00,69.6,54.6,30.11,SSW,198,3.0,6.0,59,0.00,,,0.00,Wunderground v.1.15,2013-08-16 17:00:00,
2013-08-16 13:05:00,69.8,56.2,30.11,NW,311,3.0,6.0,62,0.00,,,0.00,Wunderground v.1.15,2013-08-16 17:05:00,
2013-08-16 13:10:00,70.0,55.0,30.11,West,281,4.0,4.0,59,0.00,,,0.00,Wunderground v.1.15,2013-08-16 17:10:00,
2013-08-16 13:20:00,69.9,55.8,30.11,West,275,2.0,3.0,61,0.00,,,0.00,Wunderground v.1.15,2013-08-16 17:20:00,
2013-08-16 13:25:00,70.8,54.8,30.11,SSE,168,3.0,3.0,57,0.00,,,0.00,Wunderground v.1.15,2013-08-16 17:25:00,
2013-08-16 13:35:00,70.8,54.3,30.11,South,169,4.0,7.0,56,0.00,,,0.00,Wunderground v.1.15,2013-08-16 17:35:00,
2013-08-16 13:40:00,71.1,54.6,30.11,SW,219,3.0,3.0,56,0.00,,,0.00,Wunderground v.1.15,2013-08-16 17:40:00,
2013-08-16 13:45:00,71.2,54.7,30.11,WNW,302,4.0,4.0,56,0.00,,,0.00,Wunderground v.1.15,2013-08-16 17:45:00,
2013-08-16 13:50:00,71.4,53.4,30.11,WNW,282,3.0,3.0,53,0.00,,,0.00,Wunderground v.1.15,2013-08-16 17:50:00,
2013-08-16 13:55:00,71.9,54.9,30.11,WNW,285,3.0,6.0,55,0.00,,,0.00,Wunderground v.1.15,2013-08-16 17:55:00,
2013-08-16 14:05:00,71.3,56.7,30.11,West,259,3.0,5.0,60,0.00,,,0.00,Wunderground v.1.15,2013-08-16 18:05:00,
2013-08-16 14:10:00,71.9,55.3,30.11,SW,223,5.0,5.0,56,0.00,,,0.00,Wunderground v.1.15,2013-08-16 18:10:00,
2013-08-16 14:15:00,71.7,54.7,30.11,West,267,5.0,5.0,55,0.00,,,0.00,Wunderground v.1.15,2013-08-16 18:15:00,
2013-08-16 14:25:00,71.4,57.7,30.11,SSW,196,3.0,10.0,62,0.00,,,0.00,Wunderground v.1.15,2013-08-16 18:25:00,
2013-08-16 14:30:00,71.6,56.0,30.11,SSE,151,5.0,6.0,58,0.00,,,0.00,Wunderground v.1.15,2013-08-16 18:30:00,
2013-08-16 14:35:00,71.6,55.6,30.11,SW,227,6.0,6.0,57,0.00,,,0.00,Wunderground v.1.15,2013-08-16 18:35:00,
2013-08-16 14:40:00,71.9,56.8,30.11,SSW,203,6.0,6.0,59,0.00,,,0.00,Wunderground v.1.15,2013-08-16 18:40:00,
2013-08-16 14:45:00,72.2,57.1,30.11,SW,225,6.0,7.0,59,0.00,,,0.00,Wunderground v.1.15,2013-08-16 18:45:00,
2013-08-16 14:50:00,72.5,55.4,30.11,West,278,6.0,6.0,55,0.00,,,0.00,Wunderground v.1.15,2013-08-16 18:50:00,
2013-08-16 14:55:00,72.9,56.3,30.11,SW,236,5.0,6.0,56,0.00,,,0.00,Wunderground v.1.15,2013-08-16 18:55:00,
2013-08-16 15:00:00,73.1,56.0,30.11,West,273,4.0,7.0,55,0.00,,,0.00,Wunderground v.1.15,2013-08-16 19:00:00,
2013-08-16 15:05:00,73.3,56.7,30.11,West,280,4.0,7.0,56,0.00,,,0.00,Wunderground v.1.15,2013-08-16 19:05:00,
2013-08-16 15:15:00,73.1,57.0,30.10,SW,234,5.0,5.0,57,0.00,,,0.00,Wunderground v.1.15,2013-08-16 19:15:00,
2013-08-16 15:20:00,73.2,56.1,30.11,SSW,198,5.0,6.0,55,0.00,,,0.00,Wunderground v.1.15,2013-08-16 19:20:00,
2013-08-16 15:30:00,73.3,55.6,30.10,SE,142,6.0,6.0,54,0.00,,,0.00,Wunderground v.1.15,2013-08-16 19:30:00,
2013-08-16 15:35:00,73.2,54.5,30.10,South,178,6.0,8.0,52,0.00,,,0.00,Wunderground v.1.15,2013-08-16 19:35:00,
2013-08-16 15:40:00,73.5,55.3,30.10,South,188,6.0,6.0,53,0.00,,,0.00,Wunderground v.1.15,2013-08-16 19:40:00,
2013-08-16 15:45:00,73.7,57.5,30.10,SW,218,5.0,6.0,57,0.00,,,0.00,Wunderground v.1.15,2013-08-16 19:45:00,
2013-08-16 15:50:00,73.4,55.7,30.10,SW,235,4.0,4.0,54,0.00,,,0.00,Wunderground v.1.15,2013-08-16 19:50:00,
2013-08-16 15:55:00,73.2,58.0,30.10,SW,217,3.0,4.0,59,0.00,,,0.00,Wunderground v.1.15,2013-08-16 19:55:00,
2013-08-16 16:00:00,73.1,56.0,30.11,West,281,3.0,3.0,55,0.00,,,0.00,Wunderground v.1.15,2013-08-16 20:00:00,
2013-08-16 16:05:00,72.7,57.1,30.10,SSW,203,3.0,5.0,58,0.00,,,0.00,Wunderground v.1.15,2013-08-16 20:05:00,
2013-08-16 16:10:00,72.6,57.0,30.11,West,263,3.0,3.0,58,0.00,,,0.00,Wunderground v.1.15,2013-08-16 20:10:00,
2013-08-16 16:20:00,72.5,55.9,30.11,West,263,3.0,3.0,56,0.00,,,0.00,Wunderground v.1.15,2013-08-16 20:20:00,
2013-08-16 16:25:00,72.1,57.4,30.11,WNW,284,2.0,3.0,60,0.00,,,0.00,Wunderground v.1.15,2013-08-16 20:25:00,
2013-08-16 16:35:00,72.1,55.5,30.11,WNW,298,1.0,4.0,56,0.00,,,0.00,Wunderground v.1.15,2013-08-16 20:35:00,
2013-08-16 16:40:00,72.5,55.9,30.11,WNW,296,3.0,3.0,56,0.00,,,0.00,Wunderground v.1.15,2013-08-16 20:40:00,
2013-08-16 16:45:00,72.9,57.7,30.11,NNW,340,3.0,3.0,59,0.00,,,0.00,Wunderground v.1.15,2013-08-16 20:45:00,
2013-08-16 16:50:00,72.4,56.8,30.11,NNW,329,3.0,8.0,58,0.00,,,0.00,Wunderground v.1.15,2013-08-16 20:50:00,
2013-08-16 16:55:00,71.3,56.7,30.11,WNW,298,5.0,8.0,60,0.00,,,0.00,Wunderground v.1.15,2013-08-16 20:55:00,
2013-08-16 17:00:00,70.2,57.4,30.12,NNW,347,4.0,7.0,64,0.00,,,0.00,Wunderground v.1.15,2013-08-16 21:00:00,
2013-08-16 17:05:00,69.7,57.4,30.11,West,279,5.0,7.0,65,0.00,,,0.00,Wunderground v.1.15,2013-08-16 21:05:00,
2013-08-16 17:10:00,69.6,57.7,30.12,NNW,339,4.0,4.0,66,0.00,,,0.00,Wunderground v.1.15,2013-08-16 21:10:00,
2013-08-16 17:15:00,69.5,58.1,30.11,North,5,2.0,4.0,67,0.00,,,0.00,Wunderground v.1.15,2013-08-16 21:15:00,
2013-08-16 17:20:00,69.4,58.0,30.11,West,260,3.0,3.0,67,0.00,,,0.00,Wunderground v.1.15,2013-08-16 21:20:00,
2013-08-16 17:25:00,69.2,58.2,30.11,North,360,3.0,3.0,68,0.00,,,0.00,Wunderground v.1.15,2013-08-16 21:25:00,
2013-08-16 17:30:00,68.9,57.9,30.11,North,360,2.0,2.0,68,0.00,,,0.00,Wunderground v.1.15,2013-08-16 21:30:00,
2013-08-16 17:35:00,69.3,59.1,30.11,North,360,1.0,2.0,70,0.00,,,0.00,Wunderground v.1.15,2013-08-16 21:35:00,
2013-08-16 17:40:00,69.8,57.9,30.11,NNW,348,1.0,2.0,66,0.00,,,0.00,Wunderground v.1.15,2013-08-16 21:40:00,
2013-08-16 17:50:00,70.4,57.2,30.12,WSW,238,2.0,3.0,63,0.00,,,0.00,Wunderground v.1.15,2013-08-16 21:50:00,
2013-08-16 17:55:00,70.3,57.1,30.12,WSW,257,3.0,3.0,63,0.00,,,0.00,Wunderground v.1.15,2013-08-16 21:55:00,
2013-08-16 18:05:00,70.8,58.0,30.11,NW,324,1.0,2.0,64,0.00,,,0.00,Wunderground v.1.15,2013-08-16 22:05:00,
2013-08-16 18:10:00,71.1,58.7,30.11,West,263,0.0,0.0,65,0.00,,,0.00,Wunderground v.1.15,2013-08-16 22:10:00,
2013-08-16 18:15:00,71.2,58.0,30.12,SSW,204,1.0,3.0,63,0.00,,,0.00,Wunderground v.1.15,2013-08-16 22:15:00,
2013-08-16 18:20:00,71.0,57.8,30.12,WNW,284,2.0,2.0,63,0.00,,,0.00,Wunderground v.1.15,2013-08-16 22:20:00,
2013-08-16 18:25:00,71.2,58.0,30.12,SW,225,1.0,2.0,63,0.00,,,0.00,Wunderground v.1.15,2013-08-16 22:25:00,
2013-08-16 18:30:00,71.2,58.4,30.12,SW,225,1.0,1.0,64,0.00,,,0.00,Wunderground v.1.15,2013-08-16 22:30:00,
2013-08-16 18:35:00,71.2,58.0,30.12,SW,225,1.0,1.0,63,0.00,,,0.00,Wunderground v.1.15,2013-08-16 22:35:00,
2013-08-16 18:40:00,71.2,58.0,30.12,SW,225,0.0,0.0,63,0.00,,,0.00,Wunderground v.1.15,2013-08-16 22:40:00,
2013-08-16 18:45:00,71.2,59.3,30.12,SW,225,0.0,0.0,66,0.00,,,0.00,Wunderground v.1.15,2013-08-16 22:45:00,
2013-08-16 18:50:00,71.1,59.6,30.13,SW,225,0.0,0.0,67,0.00,,,0.00,Wunderground v.1.15,2013-08-16 22:50:00,
2013-08-16 18:55:00,70.5,59.0,30.13,SW,225,0.0,0.0,67,0.00,,,0.00,Wunderground v.1.15,2013-08-16 22:55:00,
2013-08-16 19:00:00,69.8,59.6,30.13,SW,225,0.0,0.0,70,0.00,,,0.00,Wunderground v.1.15,2013-08-16 23:00:00,
2013-08-16 19:05:00,69.2,59.4,30.13,SW,225,0.0,0.0,71,0.00,,,0.00,Wunderground v.1.15,2013-08-16 23:05:00,
2013-08-16 19:10:00,68.7,60.1,30.13,SW,225,0.0,0.0,74,0.00,,,0.00,Wunderground v.1.15,2013-08-16 23:10:00,
2013-08-16 19:15:00,67.2,59.4,30.13,SW,225,0.0,0.0,76,0.00,,,0.00,Wunderground v.1.15,2013-08-16 23:15:00,
2013-08-16 19:20:00,65.9,59.2,30.13,SW,225,0.0,0.0,79,0.00,,,0.00,Wunderground v.1.15,2013-08-16 23:20:00,
2013-08-16 19:25:00,64.8,59.2,30.14,SW,225,0.0,0.0,82,0.00,,,0.00,Wunderground v.1.15,2013-08-16 23:25:00,
2013-08-16 19:30:00,63.9,58.6,30.14,SW,225,0.0,0.0,83,0.00,,,0.00,Wunderground v.1.15,2013-08-16 23:30:00,
2013-08-16 19:35:00,63.0,58.1,30.15,SW,225,0.0,0.0,84,0.00,,,0.00,Wunderground v.1.15,2013-08-16 23:35:00,
2013-08-16 19:40:00,62.4,57.8,30.15,SW,225,0.0,0.0,85,0.00,,,0.00,Wunderground v.1.15,2013-08-16 23:40:00,
2013-08-16 19:45:00,61.8,57.6,30.15,SW,225,0.0,0.0,86,0.00,,,0.00,Wunderground v.1.15,2013-08-16 23:45:00,
2013-08-16 19:50:00,61.3,57.4,30.15,SW,225,0.0,0.0,87,0.00,,,0.00,Wunderground v.1.15,2013-08-16 23:50:00,
2013-08-16 20:00:00,60.5,56.9,30.15,SW,225,0.0,0.0,88,0.00,,,0.00,Wunderground v.1.15,2013-08-17 00:00:00,
2013-08-16 20:05:00,60.1,56.8,30.15,SW,225,0.0,0.0,89,0.00,,,0.00,Wunderground v.1.15,2013-08-17 00:05:00,
2013-08-16 20:10:00,59.7,56.5,30.15,SW,225,0.0,0.0,89,0.00,,,0.00,Wunderground v.1.15,2013-08-17 00:10:00,
2013-08-16 20:15:00,59.4,56.5,30.16,SW,225,0.0,0.0,90,0.00,,,0.00,Wunderground v.1.15,2013-08-17 00:15:00,
2013-08-16 20:20:00,59.1,56.5,30.16,SW,225,0.0,0.0,91,0.00,,,0.00,Wunderground v.1.15,2013-08-17 00:20:00,
2013-08-16 20:25:00,58.8,56.2,30.16,SW,225,0.0,0.0,91,0.00,,,0.00,Wunderground v.1.15,2013-08-17 00:25:00,
2013-08-16 20:30:00,58.3,55.4,30.16,SW,225,0.0,0.0,90,0.00,,,0.00,Wunderground v.1.15,2013-08-17 00:30:00,
2013-08-16 20:35:00,58.0,55.4,30.16,SW,225,0.0,0.0,91,0.00,,,0.00,Wunderground v.1.15,2013-08-17 00:35:00,
2013-08-16 20:40:00,57.8,55.5,30.16,SW,225,0.0,0.0,92,0.00,,,0.00,Wunderground v.1.15,2013-08-17 00:40:00,
2013-08-16 20:45:00,57.6,55.6,30.16,SW,225,0.0,0.0,93,0.00,,,0.00,Wunderground v.1.15,2013-08-17 00:45:00,
2013-08-16 20:55:00,57.0,54.7,30.17,SW,225,0.0,0.0,92,0.00,,,0.00,Wunderground v.1.15,2013-08-17 00:55:00,
2013-08-16 21:05:00,56.6,54.3,30.17,SW,225,0.0,0.0,92,0.00,,,0.00,Wunderground v.1.15,2013-08-17 01:05:00,
2013-08-16 21:10:00,56.5,54.5,30.17,SW,225,0.0,0.0,93,0.00,,,0.00,Wunderground v.1.15,2013-08-17 01:10:00,
2013-08-16 21:15:00,56.4,54.4,30.18,SW,225,0.0,0.0,93,0.00,,,0.00,Wunderground v.1.15,2013-08-17 01:15:00,
2013-08-16 21:20:00,56.4,54.4,30.18,SW,225,0.0,0.0,93,0.00,,,0.00,Wunderground v.1.15,2013-08-17 01:20:00,
2013-08-16 21:25:00,56.4,54.7,30.18,SW,225,0.0,0.0,94,0.00,,,0.00,Wunderground v.1.15,2013-08-17 01:25:00,
2013-08-16 21:40:00,56.7,55.3,30.18,SW,225,0.0,0.0,95,0.00,,,0.00,Wunderground v.1.15,2013-08-17 01:40:00,
2013-08-16 21:45:00,56.8,55.4,30.18,SW,225,0.0,0.0,95,0.00,,,0.00,Wunderground v.1.15,2013-08-17 01:45:00,
2013-08-16 21:50:00,57.0,55.6,30.19,SW,225,0.0,2.0,95,0.00,,,0.00,Wunderground v.1.15,2013-08-17 01:50:00,
2013-08-16 22:00:00,58.1,57.0,30.20,WNW,296,1.0,5.0,96,0.00,,,0.00,Wunderground v.1.15,2013-08-17 02:00:00,
2013-08-16 22:05:00,58.6,57.2,30.20,NW,312,1.0,5.0,95,0.18,,,0.02,Wunderground v.1.15,2013-08-17 02:05:00,
2013-08-16 22:10:00,58.9,57.5,30.20,WSW,250,1.0,1.0,95,0.12,,,0.03,Wunderground v.1.15,2013-08-17 02:10:00,
2013-08-16 22:15:00,58.9,57.2,30.20,WSW,250,1.0,1.0,94,0.11,,,0.03,Wunderground v.1.15,2013-08-17 02:15:00,
2013-08-16 22:20:00,58.9,57.5,30.20,WSW,250,0.0,0.0,95,0.11,,,0.04,Wunderground v.1.15,2013-08-17 02:20:00,
2013-08-16 22:25:00,58.9,57.5,30.20,WSW,250,0.0,0.0,95,0.06,,,0.04,Wunderground v.1.15,2013-08-17 02:25:00,
2013-08-16 22:30:00,58.8,57.4,30.19,WSW,250,0.0,0.0,95,0.04,,,0.04,Wunderground v.1.15,2013-08-17 02:30:00,
2013-08-16 22:35:00,58.7,57.3,30.19,WSW,250,0.0,0.0,95,0.00,,,0.04,Wunderground v.1.15,2013-08-17 02:35:00,
2013-08-16 22:40:00,58.7,57.3,30.19,WSW,250,0.0,0.0,95,0.00,,,0.04,Wunderground v.1.15,2013-08-17 02:40:00,
2013-08-16 22:45:00,58.6,57.2,30.19,WSW,250,0.0,0.0,95,0.00,,,0.04,Wunderground v.1.15,2013-08-17 02:45:00,
2013-08-16 22:50:00,58.5,57.1,30.19,WSW,250,0.0,0.0,95,0.00,,,0.04,Wunderground v.1.15,2013-08-17 02:50:00,
2013-08-16 22:55:00,58.4,57.0,30.20,WSW,250,0.0,0.0,95,0.00,,,0.04,Wunderground v.1.15,2013-08-17 02:55:00,
2013-08-16 23:00:00,58.3,56.9,30.20,WSW,250,0.0,0.0,95,0.00,,,0.04,Wunderground v.1.15,2013-08-17 03:00:00,
2013-08-16 23:05:00,58.2,56.8,30.20,WSW,250,0.0,0.0,95,0.00,,,0.04,Wunderground v.1.15,2013-08-17 03:05:00,
2013-08-16 23:15:00,58.0,56.9,30.20,WSW,250,0.0,0.0,96,0.00,,,0.04,Wunderground v.1.15,2013-08-17 03:15:00,
2013-08-16 23:20:00,57.9,56.8,30.20,WSW,250,0.0,0.0,96,0.00,,,0.04,Wunderground v.1.15,2013-08-17 03:20:00,
2013-08-16 23:25:00,57.8,56.7,30.20,WSW,250,0.0,0.0,96,0.00,,,0.04,Wunderground v.1.15,2013-08-17 03:25:00,
2013-08-16 23:30:00,57.7,56.6,30.20,WSW,250,0.0,0.0,96,0.00,,,0.04,Wunderground v.1.15,2013-08-17 03:30:00,
2013-08-16 23:35:00,57.6,56.5,30.20,WSW,250,0.0,0.0,96,0.00,,,0.04,Wunderground v.1.15,2013-08-17 03:35:00,
2013-08-16 23:45:00,57.4,56.3,30.20,WSW,250,0.0,0.0,96,0.00,,,0.04,Wunderground v.1.15,2013-08-17 03:45:00,
2013-08-16 23:50:00,57.2,56.1,30.20,WSW,250,0.0,0.0,96,0.00,,,0.04,Wunderground v.1.15,2013-08-17 03:50:00,
2013-08-16 23:55:00,57.2,56.1,30.20,WSW,250,0.0,0.0,96,0.00,,,0.04,Wunderground v.1.15,2013-08-17 03:55:00,